Location: Abraham Lincoln Continuation High School
(33.9711°N, 117.3662°W)
Time: 07:38:39
(UTC+00:00)

Iridium 4 Rocket - Pass Details

Date: 22 January 2021
Orbit: 583 x 906 km, 86.9° (Epoch: 24 February)

Event Time Altitude Azimuth Distance (km) Brightness Sun altitude
Rises 02:18:04 0° 7° (N) 3,431 6.7 -14.2°
Reaches altitude 10° 02:20:44 10° 15° (NNE) 2,448 5.8 -14.8°
Maximum altitude 02:25:51 39° 83° (E) 1,171 3.9 -15.8°
Drops below altitude 10° 02:30:33 10° 152° (SSE) 2,241 5.8 -16.8°
Sets 02:32:53 0° 160° (SSE) 3,106 6.6 -17.2°
